Weather History for KCGE - August, 2014

Change the Weather History Date:

Sunday, August 24, 2014

  Actual Average (KESN) Record (KESN)
Temperature  
Mean Temperature 70 °F -  
Max Temperature 78 °F 86 °F 97 °F (1968)
Min Temperature 62 °F 63 °F 49 °F (1957)
Cooling Degree Days 5    
Growing Degree Days 20 (Base 50)    
Moisture  
Dew Point 60 °F    
Average Humidity 67    
Maximum Humidity 88    
Minimum Humidity 44    
Precipitation  
Precipitation 0.00 in - - ()
Sea Level Pressure  
Sea Level Pressure 30.11 in    
Wind  
Wind Speed 5 mph (NE)    
Max Wind Speed 12 mph    
Max Gust Speed 16 mph    
Visibility 9 miles    
Events      
Averages and records for this station are not official NWS values.
T = Trace of Precipitation, MM = Missing Value Source: NWS Daily Summary

Daily Weather History Graph

Daily Weather History Graph

Search for Another Location

Airport or City:

Trip Planner

Search our weather history database for the weather conditions in past years. The results will help you decide how hot, cold, wet, or windy it might be!

Date:

Astronomy

Aug. 24, 2014 Rise Set
Actual Time 6:26 AM EDT 7:45 PM EDT
Civil Twilight 5:58 AM EDT 8:13 PM EDT
Nautical Twilight 5:25 AM EDT 8:46 PM EDT
Astronomical Twilight 4:50 AM EDT 9:21 PM EDT
Moon 5:34 AM EDT (8/24) 7:03 PM EDT (8/24)
Length of Visible Light 14h 14m
Length of Day
13h 19m
Waning Crescent, 1% of the Moon is Illuminated
Aug 24
Waning Crescent
Aug 25
New
Sep 2
First Quarter
Sep 8
Full
Sep 15
Last Quarter

Hourly Weather History & Observations

Time (EDT) Temp. Dew Point Humidity Pressure Visibility Wind Dir Wind Speed Gust Speed Precip Events Conditions
12:03 AM 66.2 °F 60.8 °F 83% 30.08 in 10.0 mi Calm Calm - N/A   Clear
12:23 AM 66.2 °F 62.6 °F 88% 30.08 in 7.0 mi NNE 3.5 mph - N/A   Mostly Cloudy
12:43 AM 66.2 °F 60.8 °F 83% 30.09 in 5.0 mi NNE 3.5 mph - N/A   Mostly Cloudy
1:23 AM 66.2 °F 60.8 °F 83% 30.09 in 7.0 mi NNE 5.8 mph - N/A   Mostly Cloudy
1:43 AM 68.0 °F 60.8 °F 78% 30.09 in 7.0 mi NNE 3.5 mph - N/A   Mostly Cloudy
2:03 AM 68.0 °F 62.6 °F 83% 30.09 in 7.0 mi NNE 4.6 mph - N/A   Mostly Cloudy
2:23 AM 69.8 °F 62.6 °F 78% 30.08 in 7.0 mi NNE 4.6 mph - N/A   Scattered Clouds
2:43 AM 69.8 °F 62.6 °F 78% 30.08 in 5.0 mi NNE 3.5 mph - N/A   Scattered Clouds
3:03 AM 69.8 °F 62.6 °F 78% 30.08 in 7.0 mi NNE 4.6 mph - N/A   Mostly Cloudy
3:23 AM 68.0 °F 62.6 °F 83% 30.08 in 5.0 mi NNE 4.6 mph - N/A   Mostly Cloudy
3:43 AM 69.8 °F 62.6 °F 78% 30.09 in 7.0 mi NNE 4.6 mph - N/A   Scattered Clouds
4:03 AM 69.8 °F 62.6 °F 78% 30.08 in 7.0 mi NNE 3.5 mph - N/A   Mostly Cloudy
4:23 AM 68.0 °F 62.6 °F 83% 30.07 in 7.0 mi NNE 3.5 mph - N/A   Mostly Cloudy
4:43 AM 68.0 °F 60.8 °F 78% 30.07 in 10.0 mi NE 5.8 mph - N/A   Mostly Cloudy
5:03 AM 66.2 °F 60.8 °F 83% 30.07 in 10.0 mi NE 5.8 mph - N/A   Mostly Cloudy
5:23 AM 66.2 °F 60.8 °F 83% 30.07 in 10.0 mi NE 6.9 mph - N/A   Scattered Clouds
5:43 AM 66.2 °F 60.8 °F 83% 30.07 in 10.0 mi NE 4.6 mph - N/A   Clear
6:03 AM 64.4 °F 60.8 °F 88% 30.08 in 7.0 mi NNE 4.6 mph - N/A   Clear
6:23 AM 64.4 °F 60.8 °F 88% 30.08 in 7.0 mi NE 4.6 mph - N/A   Clear
7:03 AM 66.2 °F 62.6 °F 88% 30.10 in 3.0 mi NNE 3.5 mph - N/A   Clear
7:23 AM 68.0 °F 62.6 °F 83% 30.10 in 4.0 mi NNE 4.6 mph - N/A   Clear
7:43 AM 69.8 °F 62.6 °F 78% 30.11 in 4.0 mi North 6.9 mph - N/A   Scattered Clouds
8:04 AM 69.8 °F 62.6 °F 78% 30.11 in 4.0 mi North 5.8 mph - N/A   Clear
8:24 AM 71.6 °F 64.4 °F 78% 30.12 in 5.0 mi NNE 6.9 mph - N/A   Clear
8:44 AM 71.6 °F 62.6 °F 73% 30.12 in 10.0 mi NE 8.1 mph - N/A   Clear
9:04 AM 71.6 °F 62.6 °F 73% 30.12 in 10.0 mi NE 10.4 mph - N/A   Scattered Clouds
9:24 AM 71.6 °F 60.8 °F 69% 30.12 in 10.0 mi NE 9.2 mph - N/A   Scattered Clouds
9:44 AM 71.6 °F 59.0 °F 64% 30.13 in 10.0 mi NNE 9.2 mph - N/A   Clear
10:04 AM 71.6 °F 59.0 °F 64% 30.14 in 10.0 mi NE 8.1 mph - N/A   Scattered Clouds
10:24 AM 73.4 °F 59.0 °F 61% 30.14 in 10.0 mi ENE 8.1 mph - N/A   Mostly Cloudy
11:04 AM 73.4 °F 59.0 °F 61% 30.13 in 10.0 mi North 9.2 mph - N/A   Mostly Cloudy
11:24 AM 77.0 °F 59.0 °F 54% 30.13 in 10.0 mi NE 6.9 mph - N/A   Mostly Cloudy
11:44 AM 77.0 °F 59.0 °F 54% 30.13 in 10.0 mi North 10.4 mph - N/A   Mostly Cloudy
12:04 PM 77.0 °F 55.4 °F 47% 30.13 in 10.0 mi NE 9.2 mph 16.1 mph N/A   Scattered Clouds
12:24 PM 77.0 °F 57.2 °F 50% 30.13 in 10.0 mi NNE 9.2 mph - N/A   Scattered Clouds
12:44 PM 77.0 °F 57.2 °F 50% 30.13 in 10.0 mi ENE 11.5 mph 16.1 mph N/A   Scattered Clouds
1:04 PM 77.0 °F 59.0 °F 54% 30.14 in 10.0 mi ENE 5.8 mph - N/A   Scattered Clouds
1:24 PM 77.0 °F 57.2 °F 50% 30.13 in 10.0 mi ENE 9.2 mph - N/A   Scattered Clouds
1:44 PM 77.0 °F 55.4 °F 47% 30.12 in 10.0 mi NNE 10.4 mph - N/A   Scattered Clouds
2:04 PM 77.0 °F 57.2 °F 50% 30.13 in 10.0 mi ENE 5.8 mph - N/A   Scattered Clouds
2:24 PM 77.0 °F 55.4 °F 47% 30.12 in 10.0 mi East 9.2 mph - N/A   Mostly Cloudy
2:44 PM 77.0 °F 59.0 °F 54% 30.12 in 10.0 mi NNE 5.8 mph - N/A   Scattered Clouds
3:04 PM 78.8 °F 55.4 °F 44% 30.12 in 10.0 mi NNE 9.2 mph - N/A   Scattered Clouds
3:24 PM 77.0 °F 55.4 °F 47% 30.12 in 10.0 mi East 6.9 mph - N/A   Scattered Clouds
3:44 PM 78.8 °F 55.4 °F 44% 30.11 in 10.0 mi NE 6.9 mph - N/A   Scattered Clouds
4:04 PM 77.0 °F 55.4 °F 47% 30.11 in 10.0 mi ENE 4.6 mph - N/A   Scattered Clouds
4:45 PM 78.8 °F 55.4 °F 44% 30.10 in 10.0 mi ENE 5.8 mph - N/A   Clear
5:05 PM 78.8 °F 55.4 °F 44% 30.10 in 10.0 mi East 4.6 mph - N/A   Scattered Clouds
5:25 PM 78.8 °F 55.4 °F 44% 30.10 in 10.0 mi East 3.5 mph - N/A   Scattered Clouds
5:45 PM 78.8 °F 55.4 °F 44% 30.09 in 10.0 mi East 3.5 mph - N/A   Scattered Clouds
6:05 PM 78.8 °F 55.4 °F 44% 30.09 in 10.0 mi Calm Calm - N/A   Clear
6:25 PM 78.8 °F 57.2 °F 47% 30.09 in 10.0 mi East 5.8 mph - N/A   Clear
6:45 PM 77.0 °F 57.2 °F 50% 30.09 in 10.0 mi Calm Calm - N/A   Clear
7:05 PM 77.0 °F 59.0 °F 54% 30.09 in 10.0 mi East 3.5 mph - N/A   Clear
7:25 PM 73.4 °F 59.0 °F 61% 30.09 in 10.0 mi East 4.6 mph - N/A   Clear
7:45 PM 71.6 °F 60.8 °F 69% 30.10 in 10.0 mi ESE 4.6 mph - N/A   Clear
8:25 PM 71.6 °F 62.6 °F 73% 30.11 in 10.0 mi East 4.6 mph - N/A   Clear
8:45 PM 71.6 °F 62.6 °F 73% 30.12 in 10.0 mi East 3.5 mph - N/A   Scattered Clouds
9:05 PM 71.6 °F 62.6 °F 73% 30.12 in 10.0 mi East 4.6 mph - N/A   Mostly Cloudy
9:25 PM 71.6 °F 62.6 °F 73% 30.12 in 10.0 mi East 3.5 mph - N/A   Overcast
9:45 PM 69.8 °F 60.8 °F 73% 30.13 in 10.0 mi Calm Calm - N/A   Scattered Clouds
10:05 PM 69.8 °F 60.8 °F 73% 30.13 in 10.0 mi Calm Calm - N/A   Scattered Clouds
10:45 PM 64.4 °F 59.0 °F 83% 30.13 in 10.0 mi Calm Calm - N/A   Clear
11:05 PM 62.6 °F 59.0 °F 88% 30.13 in 10.0 mi Calm Calm - N/A   Scattered Clouds
11:25 PM 62.6 °F 59.0 °F 88% 30.13 in 10.0 mi NE 3.5 mph - N/A   Scattered Clouds
11:45 PM 64.4 °F 59.0 °F 83% 30.13 in 10.0 mi NE 3.5 mph - N/A   Clear